Погода в Митхо

Вьетнам     10°21′41″N   106°21′40″E
темп.,
°C
ветер,
м/с
пор.,
м/с
влажн.,
%
обл.,
%
осадки,
мм/ч
давл.,
гПа
погр.,
м
9 мая, вс
вс901:00+26ююв1292100 0.9 100862
04:00+26юв1190100 2.8 100822
07:00+27юв2589100 3.6 1010194
10:00+33в3456100 0.9 10101457
13:00+33всв2456100 2.9 10071327
16:00+35вюв434320 0.0 10051854
19:00+28вюв387497 0.1 1007387
22:00+26юв288899 0.7 1009351
10 мая, пн
пн1001:00+25вюв169331 2.9 1008172
04:00+25юв25948 0.6 1007150
07:00+28юв26832 0.7 1008453
10:00+34вюв34496 0.0 10091785
13:00+36вюв444140 0.0 10072207
16:00+34вюв44433 0.0 10051368
19:00+29юв38685 0.0 1007328
22:00+27юв27865 0.0 1009242
11 мая, вт
вт1101:00+26ююв148924 0.0 1008137
04:00+25ююв11905 0.0 100724
07:00+28вюв12765 0.0 1008273
10:00+35юв2347100 0.0 10091897
13:00+36ююв3340100 0.1 10052150
16:00+36юв3339100 0.0 10042088
19:00+29юв376615 0.0 1006346
22:00+27ююв26794 0.0 1008246
12 мая, ср
ср1201:00+26ю12845 0.1 100769
04:00+26ююв13865 0.1 100679
07:00+28ююв23735 0.1 1008359
10:00+35юв224563 0.0 10081491
13:00+38ююв113798 0.2 10052510
16:00+34вюв234833 0.2 1004902
19:00+30ююв376128 0.2 1005270
22:00+27юв2676100 0.0 1007248
13 мая, чт
чт1301:00+27ююв158197 0.0 1006151
04:00+26юв1283100 0.0 100653
07:00+29юв137299 0.0 1007382
10:00+35юв2347100 0.0 10071736
13:00+33ю3352100 0.1 10051216
16:00+34ююв124899 0.0 10031304
19:00+29юв376492 0.0 1005360
22:00+28ююв267569 0.0 1006374